PST,Max TemperatureF,Mean TemperatureF,Min TemperatureF,Max Dew PointF,MeanDew PointF,Min DewpointF,Max Humidity, Mean Humidity, Min Humidity, Max Sea Level PressureIn, Mean Sea Level PressureIn, Min Sea Level PressureIn, Max VisibilityMiles, Mean VisibilityMiles, Min VisibilityMiles, Max Wind SpeedMPH, Mean Wind SpeedMPH, Max Gust SpeedMPH,PrecipitationIn, CloudCover, Events, WindDirDegrees
2012-11-1,59,53,46,46,43,39,86,71,55,30.04,29.90,29.82,10,10,4,20,5,26,0.14,6,Rain,214
2012-11-2,57,50,43,44,42,41,89,73,57,30.13,30.09,30.06,10,10,8,8,1,10,0.00,6,,65
2012-11-3,53,48,43,48,44,40,93,85,77,30.16,30.10,30.05,10,8,2,8,2,12,0.28,7,Fog-Rain,232
2012-11-4,60,55,49,50,47,46,89,77,64,30.32,30.27,30.19,10,10,7,14,2,17,T,8,,199
2012-11-5,60,51,41,51,46,39,92,80,67,30.26,30.23,30.17,10,7,0,15,4,22,0.00,3,Fog,304
2012-11-6,59,51,42,49,44,39,96,82,67,30.22,30.06,29.87,10,6,0,12,2,15,0.02,6,Fog-Rain,48
2012-11-7,54,43,32,47,32,23,83,61,38,30.04,29.98,29.87,10,10,10,21,7,24,0.00,2,,248
2012-11-8,45,36,27,33,29,25,92,69,45,29.98,29.78,29.71,10,6,1,18,2,25,0.19,5,Rain-Snow,88
2012-11-9,34,30,26,30,27,23,89,82,75,29.95,29.84,29.73,10,7,2,8,2,9,0.10,7,Snow,103
2012-11-10,34,29,23,25,21,18,88,70,51,30.24,30.09,29.95,10,10,10,7,1,9,0.00,4,,310
2012-11-11,35,29,23,28,24,19,88,76,64,30.37,30.30,30.18,10,10,9,8,1,9,0.00,7,,133
2012-11-12,37,35,32,34,31,28,92,84,75,30.33,30.25,30.20,5,2,1,6,1,8,0.45,8,Rain-Snow,62
2012-11-13,43,40,37,37,35,34,92,84,76,30.30,30.25,30.19,10,6,1,7,0,9,0.02,8,Rain,75
2012-11-14,40,38,36,36,34,32,92,87,82,30.38,30.29,30.16,10,8,2,10,4,14,T,8,Rain,279
2012-11-15,47,42,36,36,34,32,89,75,60,30.37,30.22,30.03,10,10,7,12,2,14,0.00,7,,94
2012-11-16,49,41,32,36,34,31,92,77,61,30.03,29.99,29.93,10,9,4,6,1,8,0.00,4,,358
2012-11-17,53,44,35,43,37,32,92,76,59,29.94,29.76,29.57,10,8,2,26,5,33,0.15,7,Rain,131
2012-11-18,49,42,35,36,32,29,85,68,50,29.94,29.86,29.71,10,10,10,23,7,32,T,5,Rain,201
2012-11-19,54,48,42,45,40,33,93,76,59,29.86,29.77,29.66,10,8,4,29,14,43,0.70,8,Rain,169
2012-11-20,52,48,43,45,43,37,93,82,71,29.82,29.75,29.70,10,9,2,18,5,23,0.36,7,Rain,154
2012-11-21,48,41,34,40,34,28,89,71,53,30.21,29.86,29.64,10,10,6,28,12,39,0.10,6,Rain,231
2012-11-22,44,37,29,30,29,26,92,73,53,30.50,30.43,30.24,10,10,10,12,1,15,0.00,2,,176
2012-11-23,46,40,34,39,34,29,89,75,60,30.40,30.21,30.04,10,10,5,15,2,22,0.26,7,Rain,73
2012-11-24,46,39,31,40,34,28,92,81,70,30.17,30.12,30.05,10,8,1,14,4,20,0.01,7,,258
2012-11-25,41,34,26,34,28,23,92,76,59,30.39,30.27,30.11,10,8,1,8,2,9,0.00,5,,249
2012-11-26,39,33,26,30,26,23,92,78,64,30.39,30.30,30.20,10,5,0,6,1,8,0.00,5,Fog,35
2012-11-27,41,36,31,29,27,26,85,73,60,30.27,30.21,30.14,10,10,10,6,0,8,0.00,4,,70
2012-11-28,39,33,27,35,29,24,92,78,64,30.12,29.97,29.85,10,9,5,9,1,12,0.10,3,Rain,229
2012-11-29,48,41,33,41,35,30,96,86,76,29.91,29.81,29.65,10,5,0,9,2,14,0.12,7,Fog-Rain,59
2012-11-30,54,49,44,44,42,39,92,78,63,29.63,29.59,29.55,10,10,6,25,5,37,0.17,7,Rain,101